Weather History for Mumbai, India

Change the Weather History Date:

Wednesday, October 23, 2013

  Actual Average Record
Temperature  
Mean Temperature 84 °F -  
Max Temperature 94 °F 90 °F 99 °F (2014)
Min Temperature 73 °F 73 °F 71 °F (2003)
Cooling Degree Days 18    
Growing Degree Days 34 (Base 50)    
Moisture  
Dew Point 65 °F    
Average Humidity 48    
Maximum Humidity 64    
Minimum Humidity 30    
Precipitation  
Precipitation 0.00 in - - ()
Sea Level Pressure  
Sea Level Pressure 29.76 in    
Wind  
Wind Speed 6 mph ()    
Max Wind Speed 10 mph    
Max Gust Speed -    
Visibility 2.2 miles    
Events      
Averages and records for this station are not official NWS values.
T = Trace of Precipitation, MM = Missing Value Source: Averaged Metar Reports

Daily Weather History Graph

Daily Weather History Graph

Search for Another Location

Airport:

Trip Planner

Search our weather history database for the weather conditions in past years. The results will help you decide how hot, cold, wet, or windy it might be!

Date:

Astronomy

Oct. 23, 2013 Rise Set
Actual Time 6:35 AM IST 6:10 PM IST
Civil Twilight 6:13 AM IST 6:32 PM IST
Nautical Twilight 5:47 AM IST 6:58 PM IST
Astronomical Twilight 5:21 AM IST 7:23 PM IST
Moon 9:37 PM IST (10/23) 10:10 AM IST (10/23)
Length of Visible Light 12h 19m
Length of Day
11h 34m
Waning Gibbous, 82% of the Moon is Illuminated
Oct 23
Waning Gibbous
Oct 27
Last Quarter
Nov 3
New
Nov 10
First Quarter
Nov 17
Full

Hourly Weather History & Observations

Time (IST) Temp. Heat Index Dew Point Humidity Pressure Visibility Wind Dir Wind Speed Gust Speed Precip Events Conditions
12:10 AM 86.0 °F 87.3 °F 64.4 °F 48% 29.77 in 2.2 mi NE 8.1 mph - N/A   Smoke
12:40 AM 86.0 °F 86.6 °F 62.6 °F 45% 29.77 in 2.2 mi NE 8.1 mph - N/A   Smoke
1:10 AM 84.2 °F 85.0 °F 62.6 °F 48% 29.77 in 2.2 mi NE 8.1 mph - N/A   Smoke
1:40 AM 86.0 °F 86.1 °F 60.8 °F 43% 29.74 in 2.2 mi NE 8.1 mph - N/A   Smoke
2:10 AM 84.2 °F 84.4 °F 60.8 °F 45% 29.74 in 2.2 mi NE 8.1 mph - N/A   Smoke
2:30 AM 81 °F - 62 °F 42% 29.74 in 1 mi NE 3.5 mph - -   Smoke
2:40 AM 84.2 °F 84.4 °F 60.8 °F 45% 29.74 in 2.2 mi NE 6.9 mph - N/A   Smoke
3:10 AM 84.2 °F 83.8 °F 59.0 °F 42% 29.74 in 2.2 mi NE 5.8 mph - N/A   Smoke
3:40 AM 84.2 °F 83.8 °F 59.0 °F 42% 29.74 in 2.2 mi NE 5.8 mph - N/A   Smoke
4:10 AM 82.4 °F 82.9 °F 60.8 °F 48% 29.74 in 2.2 mi SSW 3.5 mph - N/A   Smoke
4:40 AM 80.6 °F 81.5 °F 60.8 °F 51% 29.74 in 2.2 mi South 3.5 mph - N/A   Smoke
5:10 AM 82.4 °F 82.5 °F 59.0 °F 45% 29.74 in 2.2 mi SSW 5.8 mph - N/A   Smoke
5:30 AM 76 °F - 66 °F 64% 29.75 in 1 mi Calm Calm - -   Smoke
5:40 AM 84.2 °F 83.8 °F 59.0 °F 42% 29.74 in 2.2 mi NNE 4.6 mph - N/A   Smoke
6:10 AM 82.4 °F 82.5 °F 59.0 °F 45% 29.77 in 2.2 mi NNE 4.6 mph - N/A   Smoke
6:40 AM 84.2 °F 83.8 °F 59.0 °F 42% 29.77 in 2.2 mi NE 6.9 mph - N/A   Smoke
7:10 AM 82.4 °F 82.5 °F 59.0 °F 45% 29.80 in 2.2 mi NE 6.9 mph - N/A   Smoke
7:40 AM 82.4 °F 82.5 °F 59.0 °F 45% 29.80 in 2.2 mi NNE 5.8 mph - N/A   Smoke
8:10 AM 84.2 °F 83.8 °F 59.0 °F 42% 29.80 in 2.2 mi NNE 4.6 mph - N/A   Smoke
8:30 AM 80 °F - 65 °F 52% 29.82 in 1 mi Calm Calm - -   Smoke
8:40 AM 84.2 °F 84.4 °F 60.8 °F 45% 29.83 in 2.2 mi NE 5.8 mph - N/A   Smoke
9:10 AM 86.0 °F 86.1 °F 60.8 °F 43% 29.83 in 2.2 mi NNE 4.6 mph - N/A   Smoke
9:40 AM 86.0 °F 86.1 °F 60.8 °F 43% 29.83 in 2.2 mi NNE 4.6 mph - N/A   Smoke
10:10 AM 87.8 °F 87.6 °F 60.8 °F 40% 29.83 in 2.2 mi ENE 6.9 mph - N/A   Smoke
10:40 AM 89.6 °F 89.5 °F 60.8 °F 38% 29.83 in 2.2 mi NNE 6.9 mph - N/A   Smoke
11:10 AM 89.6 °F 89.5 °F 60.8 °F 38% 29.83 in 2.2 mi North 6.9 mph - N/A   Smoke
11:30 AM 92 °F - 65 °F 30% 29.81 in 2 mi Calm Calm - -   Smoke
11:40 AM 91.4 °F 91.4 °F 60.8 °F 36% 29.80 in 2.2 mi NE 6.9 mph - N/A   Smoke
12:10 PM 91.4 °F 91.4 °F 60.8 °F 36% 29.77 in 2.5 mi ENE 10.4 mph - N/A   Smoke
12:40 PM 91.4 °F 93.2 °F 64.4 °F 41% 29.77 in 2.5 mi NNE 9.2 mph - N/A   Smoke
1:10 PM 93.2 °F 94.9 °F 64.4 °F 38% 29.74 in 2.5 mi NNE 9.2 mph - N/A   Smoke
1:40 PM 93.2 °F 96.2 °F 66.2 °F 41% 29.74 in 2.5 mi East 6.9 mph - N/A   Smoke
2:10 PM 93.2 °F 96.2 °F 66.2 °F 41% 29.71 in 2.5 mi NE 9.2 mph - N/A   Smoke
2:30 PM 94 °F - 69 °F 34% 29.72 in 1 mi NE 3.5 mph - -   Smoke
3:10 PM 93.2 °F 97.7 °F 68.0 °F 44% 29.71 in 3.7 mi ENE 10.4 mph - N/A   Partly Cloudy
4:10 PM 93.2 °F 96.2 °F 66.2 °F 41% 29.68 in 3.1 mi NNE 6.9 mph - N/A   Smoke
4:40 PM 93.2 °F 97.7 °F 68.0 °F 44% 29.68 in 3.1 mi East 8.1 mph - N/A   Smoke
5:10 PM 93.2 °F 97.7 °F 68.0 °F 44% 29.71 in 3.1 mi NNW 6.9 mph - N/A   Smoke
5:30 PM 89 °F - 74 °F 53% 29.73 in 1 mi North 3.5 mph - -   Smoke
5:40 PM 89.6 °F 98.2 °F 73.4 °F 59% 29.71 in 2.2 mi NNW 6.9 mph - N/A   Smoke
6:10 PM 87.8 °F 93.8 °F 71.6 °F 58% 29.71 in - NW 6.9 mph - N/A   Smoke
6:40 PM 87.8 °F 95.6 °F 73.4 °F 62% 29.71 in 2.2 mi NNW 6.9 mph - N/A   Smoke
7:10 PM 87.8 °F 93.8 °F 71.6 °F 58% 29.74 in 2.2 mi NNW 6.9 mph - N/A   Haze
7:40 PM 87.8 °F 93.8 °F 71.6 °F 58% 29.74 in 2.5 mi North 6.9 mph - N/A   Haze
8:10 PM 87.8 °F 95.6 °F 73.4 °F 62% 29.74 in 2.5 mi NW 6.9 mph - N/A   Haze
8:30 PM 86 °F - 73 °F 57% 29.76 in 1 mi NW 3.5 mph - -   Smoke
8:40 PM 87.8 °F 95.6 °F 73.4 °F 62% 29.77 in 2.5 mi North 6.9 mph - N/A   Haze
9:10 PM 87.8 °F 95.6 °F 73.4 °F 62% 29.77 in 2.5 mi NNE 8.1 mph - N/A   Haze
9:40 PM 86.0 °F 91.8 °F 71.6 °F 62% 29.77 in 2.5 mi NNW 6.9 mph - N/A   Haze
10:10 PM 86.0 °F 90.4 °F 69.8 °F 58% 29.77 in 2.5 mi NW 5.8 mph - N/A   Smoke
10:40 PM 86.0 °F 89.4 °F 68.0 °F 55% 29.77 in 2.5 mi NNE 5.8 mph - N/A   Smoke
11:10 PM 86.0 °F 88.2 °F 66.2 °F 51% 29.77 in 2.2 mi NE 9.2 mph - N/A   Smoke
11:30 PM 81 °F - 70 °F 61% 29.79 in 1 mi North 3.5 mph - -   Smoke
11:40 PM 86.0 °F 88.2 °F 66.2 °F 51% 29.77 in 2.2 mi NNE 9.2 mph - N/A   Smoke